Location: Altoona
(40.5167°N, 78.4000°W)
Time: 22:56:57
(UTC-05:00)

NOSS 3-4 (A) - Pass Details

Date: 21 August 2017
Orbit: 954 x 1258 km, 63.4° (Epoch: 19 November)

Event Time Altitude Azimuth Distance (km) Brightness Sun altitude
Exits shadow 22:41:48 43° 71° (ENE) 1,342 4.0 -26.7°
Drops below altitude 10° 22:46:20 10° 42° (NE) 2,759 5.9 -27.2°
Sets 22:49:02 0° 39° (NE) 3,746 6.7 -27.6°
